Waarnemingen

Advertentie
Mijn weer
Zwiesel, Duitsland (10796): temperatuur & dauwpunt: 20.09.2017 14:00:00 - 26.09.2017 14:00:00 (CEST)Zwiesel, Duitsland (10796): temperatuur 5cm & temperatuur -5cm: 20.09.2017 14:00:00 - 26.09.2017 14:00:00 (CEST)Zwiesel, Duitsland (10796): temperatuur -20cm & temperatuur -100cm: 20.09.2017 14:00:00 - 26.09.2017 14:00:00 (CEST)Zwiesel, Duitsland (10796): windsnelheid & windstoten: 20.09.2017 14:00:00 - 26.09.2017 14:00:00 (CEST)Zwiesel, Duitsland (10796): windrichting: 20.09.2017 14:00:00 - 26.09.2017 14:00:00 (CEST)Zwiesel, Duitsland (10796): luchtdruk: 20.09.2017 14:00:00 - 26.09.2017 14:00:00 (CEST)Zwiesel, Duitsland (10796): zicht: 20.09.2017 14:00:00 - 26.09.2017 14:00:00 (CEST)Zwiesel, Duitsland (10796): Zonneschijnduur: 20.09.2017 14:00:00 - 26.09.2017 14:00:00 (CEST)Zwiesel, Duitsland (10796): neerslag: 20.09.2017 14:00:00 - 26.09.2017 14:00:00 (CEST)
Datum & Tijd tt [°C] td [°C] tt 5cm [°C] tt -5cm [°C] tt -20cm [°C] tt -100cm [°C] ff [km/u] ff [kn] fx [km/u] fx [kn] dd ppp [hPa] vv [km] sd [min] rr [mm]
26.09.2017 14:00:00 18,7 8,0 21,0 15,9 11,1 13,2 8 5 23 13 ZZW 1020,6 38 55 0,0
26.09.2017 13:00:00 17,3 8,0 19,1 15,0 10,7 13,2 10 6 19 10 ZO 1021,2 57 58 0,0
26.09.2017 12:00:00 16,3 7,0 17,6 13,4 10,4 13,3 6 4 15 8 ZW 1021,6 41 60 0,0
26.09.2017 11:00:00 15,7 8,4 16,9 11,4 10,4 13,3 6 3 9 5 ZW 1021,6 40 60 0,0
26.09.2017 10:00:00 12,1 6,9 10,8 9,4 10,5 13,3 2 1 4 2 WZW 1022,5 37 60 0,0
26.09.2017 09:00:00 7,6 5,1 7,7 8,3 10,6 13,3 3 1 5 3 NNW 1023,6 12 58 0,0
26.09.2017 08:00:00 5,1 4,6 3,5 8,4 10,8 13,3 2 1 5 3 ZO 1023,9 4,3 2 0,0
26.09.2017 07:00:00 5,4 5,0 4,2 8,7 11,0 13,3 3 1 6 3 N 1023,4 4,9 0 0,0
26.09.2017 06:00:00 5,4 5,1 3,2 8,9 11,3 13,3 2 1 7 4 ONO 1023,3 4,0 0 0,0
26.09.2017 05:00:00 5,9 5,4 3,4 9,4 11,5 13,3 4 2 6 3 Z 1022,9 4,0 0 0,0
26.09.2017 04:00:00 6,6 6,1 5,4 9,8 11,7 13,3 3 2 6 4 O 1022,5 7 0 0,0
26.09.2017 03:00:00 6,9 6,4 5,7 10,1 11,9 13,3 0 0 10 6 N 1022,5 12 0 0,0
26.09.2017 02:00:00 7,4 6,9 5,7 10,6 12,1 13,3 4 2 8 5 ZO 1022,4 6 0 0,0
26.09.2017 01:00:00 8,4 7,1 6,0 11,2 12,3 13,3 3 2 11 6 ZW 1022,2 10 0 0,0
26.09.2017 00:00:00 10,2 8,5 8,4 11,7 12,4 13,3 6 3 11 6 NNO 1021,8 18 0 0,0
25.09.2017 23:00:00 9,4 8,2 7,2 12,2 12,6 13,3 0 0 9 5 N 1022,1 14 0 0,0
25.09.2017 22:00:00 10,8 8,7 8,7 12,8 12,7 13,3 5 3 8 4 N 1021,6 20 0 0,0
25.09.2017 21:00:00 11,5 8,9 9,7 13,4 12,7 13,3 5 3 12 7 NNO 1021,4 24 0 0,0
25.09.2017 20:00:00 12,1 8,9 10,2 14,2 12,7 13,3 7 4 10 6 NO 1021,0 27 0 0,0
25.09.2017 19:00:00 13,0 9,2 11,7 15,1 12,6 13,3 5 3 12 6 NNO 1020,4 29 0 0,0
25.09.2017 18:00:00 14,4 9,2 14,3 15,7 12,4 13,3 7 4 12 7 NNO 1020,0 36 7 0,0
25.09.2017 17:00:00 15,5 8,1 15,7 16,0 12,1 13,3 2 1 9 5 NNO 1019,5 43 15 0,0
25.09.2017 16:00:00 15,2 8,5 15,8 16,1 11,7 13,3 7 4 10 6 W 1019,6 42 0 0,0
25.09.2017 15:00:00 15,7 8,0 16,9 16,3 11,3 13,3 6 3 10 6 W 1019,6 55 7 0,0
25.09.2017 14:00:00 15,5 7,0 18,4 15,8 10,9 13,3 4 2 14 7 ZO 1019,6 52 41 0,0
25.09.2017 13:00:00 15,7 8,0 18,9 14,3 10,6 13,3 6 3 10 5 WZW 1019,8 46 60 0,0
25.09.2017 12:00:00 13,8 7,2 16,5 12,3 10,4 13,3 4 2 8 4 ZW 1020,5 49 19 0,0
25.09.2017 11:00:00 11,5 7,1 12,7 10,7 10,4 13,3 3 2 5 3 W 1021,2 49 0 0,0
25.09.2017 10:00:00 9,3 7,3 9,6 9,6 10,5 13,3 3 2 5 3 ZZW 1021,9 27 0 0,0
25.09.2017 09:00:00 7,7 6,7 7,7 9,2 10,6 13,3 0 0 4 2 N 1022,2 15 0 0,0
25.09.2017 08:00:00 6,8 6,0 6,9 9,0 10,7 13,3 2 1 4 2 ZO 1022,2 16 0 0,0
25.09.2017 07:00:00 6,7 5,9 6,4 9,0 10,9 13,3 2 1 4 2 ZZO 1022,1 17 0 0,0
25.09.2017 06:00:00 6,2 5,5 6,0 9,0 11,1 13,3 0 0 5 3 N 1022,1 17 0 0,0
25.09.2017 05:00:00 6,5 5,9 5,8 9,1 11,3 13,3 3 2 9 5 ZZO 1022,2 23 0 0,0
25.09.2017 04:00:00 5,6 5,0 3,4 9,5 11,6 13,3 3 2 8 5 NW 1022,9 11 0 0,0
25.09.2017 03:00:00 6,8 6,3 3,8 10,1 11,7 13,3 3 2 7 4 OZO 1022,9 16 0 0,0
25.09.2017 02:00:00 7,6 6,7 4,6 10,8 11,9 13,3 3 2 10 5 ZO 1022,8 36 0 0,0
25.09.2017 01:00:00 8,5 6,9 6,2 11,5 12,0 13,3 4 2 8 4 NNO 1022,6 33 0 0,0
25.09.2017 00:00:00 9,8 7,6 8,2 11,9 12,1 13,3 5 3 8 4 NO 1022,5 48 0 0,0
24.09.2017 23:00:00 10,3 7,9 9,0 12,3 12,2 13,3 3 2 7 4 N 1022,3 50 0 0,0
24.09.2017 22:00:00 11,1 7,7 10,0 12,6 12,3 13,3 6 3 10 6 NO 1022,4 59 0 0,0
24.09.2017 21:00:00 11,5 7,9 10,7 13,0 12,4 13,3 5 3 10 6 NNO 1022,3 62 0 0,0
24.09.2017 20:00:00 12,3 7,2 11,7 13,5 12,4 13,4 9 5 18 10 NNO 1021,8 70 0 0,0
24.09.2017 19:00:00 12,8 6,8 12,0 14,2 12,3 13,4 7 4 21 11 N 1021,5 70 0 0,0
24.09.2017 18:00:00 14,2 6,8 13,9 14,8 12,2 13,4 13 7 24 13 NO 1020,8 70 12 0,0
24.09.2017 17:00:00 14,8 5,0 14,9 15,0 11,9 13,4 8 5 14 8 N 1020,4 70 2 0,0
24.09.2017 16:00:00 14,9 6,8 15,0 15,4 11,6 13,4 3 2 15 8 NO 1020,2 70 2 0,0
24.09.2017 15:00:00 17,4 7,1 20,4 15,4 11,3 13,4 10 5 17 9 ZW 1019,3 40 31 0,0
24.09.2017 14:00:00 14,6 7,1 14,5 15,7 10,9 13,4 8 4 19 10 WZW 1020,1 58 22 0,0
24.09.2017 13:00:00 16,8 6,7 19,5 14,9 10,5 13,4 6 4 14 7 ZW 1020,0 43 54 0,0
24.09.2017 12:00:00 15,1 4,4 18,6 12,9 10,3 13,4 4 2 10 5 OZO 1020,6 50 37 0,0
24.09.2017 11:00:00 13,2 7,7 14,4 11,1 10,3 13,4 4 2 6 3 WNW 1021,2 28 9 0,0
24.09.2017 10:00:00 10,4 8,0 10,5 9,8 10,3 13,4 2 1 5 3 W 1021,8 15 1 0,0
24.09.2017 09:00:00 8,6 7,1 8,8 9,1 10,4 13,4 3 2 8 4 ZZO 1022,1 9 24 0,0
24.09.2017 08:00:00 6,3 5,6 5,2 9,1 10,6 13,4 4 2 6 3 ZO 1022,2 3,8 0 0,0
24.09.2017 07:00:00 6,7 5,9 4,2 9,6 10,6 13,4 3 2 5 3 ZW 1021,9 7 0 0,0
24.09.2017 06:00:00 7,9 7,0 7,7 9,7 10,7 13,4 0 0 4 2 N 1021,5 8 0 0,0
24.09.2017 05:00:00 7,8 6,9 7,7 9,8 10,9 13,4 0 0 5 3 N 1021,6 10 0 0,0
24.09.2017 04:00:00 7,7 6,9 7,5 9,8 11,0 13,4 3 1 5 3 Z 1021,7 7 0 0,0
24.09.2017 03:00:00 7,7 6,4 7,5 9,9 11,1 13,4 4 2 7 4 O 1021,9 15 0 0,0
24.09.2017 02:00:00 7,5 6,7 7,2 9,9 11,3 13,4 0 0 9 5 N 1022,3 8 0 0,0
24.09.2017 01:00:00 6,8 6,1 5,4 10,1 11,5 13,4 0 0 6 3 N 1022,5 12 0 0,0
24.09.2017 00:00:00 7,3 6,4 6,9 10,5 11,7 13,4 3 2 10 5 NNO 1022,5 12 0 0,0
23.09.2017 23:00:00 7,8 6,8 6,1 11,0 11,8 13,4 4 2 11 6 OZO 1022,6 14 0 0,0
23.09.2017 22:00:00 8,8 7,2 5,4 11,6 12,0 13,4 4 2 9 5 ONO 1022,2 17 0 0,0
23.09.2017 21:00:00 10,5 7,5 7,5 12,4 12,0 13,4 6 4 10 5 NO 1021,6 36 0 0,0
23.09.2017 20:00:00 10,4 7,3 8,0 13,1 12,0 13,4 2 1 8 4 N 1021,6 27 0 0,0
23.09.2017 19:00:00 12,6 7,5 10,8 13,8 11,9 13,4 4 2 17 9 NNO 1020,9 47 19 0,0
23.09.2017 18:00:00 15,3 7,2 14,5 14,4 11,7 13,5 10 5 21 11 NNW 1020,1 55 31 0,0
23.09.2017 17:00:00 15,5 7,4 14,6 15,1 11,4 13,5 4 2 17 9 NNW 1019,7 56 4 0,0
23.09.2017 16:00:00 16,2 7,5 16,3 15,4 11,0 13,5 5 3 7 4 W 1019,8 57 7 0,0
23.09.2017 15:00:00 15,5 6,8 15,0 15,9 10,5 13,5 5 3 15 8 NNW 1020,4 61 21 0,0
23.09.2017 14:00:00 17,7 6,4 20,8 15,4 10,0 13,5 7 4 18 10 ZW 1020,1 42 42 0,0
23.09.2017 13:00:00 16,7 5,9 20,0 14,1 9,5 13,5 6 4 13 7 N 1021,0 44 60 0,0
23.09.2017 12:00:00 16,0 7,2 17,1 11,8 9,3 13,5 4 2 8 4 WZW 1021,5 51 56 0,0
23.09.2017 11:00:00 12,6 7,2 13,5 9,7 9,2 13,5 5 3 8 4 OZO 1023,1 29 46 0,0
23.09.2017 10:00:00 9,2 5,6 9,0 7,8 9,3 13,5 4 2 6 3 W 1024,1 25 60 0,0
23.09.2017 09:00:00 5,5 3,4 5,7 6,5 9,5 13,5 2 1 8 4 N 1025,3 16 60 0,0
23.09.2017 08:00:00 2,4 2,2 1,9 6,3 9,7 13,5 0 0 4 2 N 1026,1 3,4 18 0,0
23.09.2017 07:00:00 1,6 1,4 0,2 6,6 10,0 13,5 3 2 5 3 NNO 1026,0 0,2 0 0,0
23.09.2017 06:00:00 2,5 2,3 1,4 6,9 10,2 13,5 0 0 5 3 N 1025,5 0,2 0 0,0
23.09.2017 05:00:00 2,6 2,3 0,7 7,4 10,5 13,5 2 1 5 3 OZO 1025,8 4,6 0 0,0
23.09.2017 04:00:00 3,1 2,5 1,0 7,9 10,7 13,5 4 2 5 3 ZZW 1025,7 7 0 0,0
23.09.2017 03:00:00 4,0 3,6 2,1 8,3 10,9 13,5 4 2 6 3 ONO 1025,7 8 0 0,0
23.09.2017 02:00:00 4,4 3,9 3,0 8,7 11,2 13,5 0 0 5 3 N 1025,8 10 0 0,0
23.09.2017 01:00:00 5,1 4,8 3,3 9,1 11,4 13,5 2 1 4 2 O 1025,4 11 0 0,0
23.09.2017 00:00:00 5,2 4,8 2,9 9,8 11,7 13,5 2 1 10 5 OZO 1025,4 12 0 0,0
22.09.2017 23:00:00 5,9 5,4 3,2 10,5 11,8 13,5 2 1 6 3 WNW 1025,1 5 0 0,0
22.09.2017 22:00:00 6,9 6,4 4,2 11,3 12,0 13,5 3 2 5 3 ONO 1024,3 1,1 0 0,0
22.09.2017 21:00:00 7,8 6,9 5,7 12,3 12,0 13,5 2 1 6 4 ZO 1023,8 17 0 0,0
22.09.2017 20:00:00 9,9 7,6 7,0 13,2 12,0 13,6 5 3 6 4 OZO 1022,9 26 0 0,0
22.09.2017 19:00:00 12,3 7,8 10,3 13,9 11,9 13,6 4 2 8 5 ZZW 1021,8 28 8 0,0
22.09.2017 18:00:00 13,6 7,7 13,1 14,4 11,7 13,6 5 3 11 6 WZW 1021,3 37 2 0,0
22.09.2017 17:00:00 14,2 6,6 14,7 14,6 11,5 13,6 6 3 12 7 WZW 1021,0 53 0 0,0
22.09.2017 16:00:00 14,2 6,7 15,8 14,5 11,3 13,6 3 2 6 4 ZZO 1020,7 44 2 0,0
22.09.2017 15:00:00 13,9 6,8 15,4 14,0 11,0 13,6 3 2 6 3 NO 1020,9 55 2 0,0
22.09.2017 14:00:00 13,6 7,9 15,0 13,5 10,8 13,6 4 2 6 4 O 1021,1 43 0 0,0
22.09.2017 13:00:00 13,1 7,4 14,3 12,8 10,7 13,6 2 1 5 3 OZO 1021,1 28 0 0,0
22.09.2017 12:00:00 12,6 7,4 12,9 12,3 10,5 13,6 0 0 5 3 N 1021,3 24 0 0,0
22.09.2017 11:00:00 12,0 8,4 13,7 11,3 10,5 13,6 3 2 5 3 W 1021,4 26 0 0,0
22.09.2017 10:00:00 10,3 7,6 11,2 10,4 10,5 13,6 3 2 5 3 NW 1021,8 32 0 0,0
22.09.2017 09:00:00 8,8 7,7 8,9 9,9 10,6 13,6 2 1 3 2 ZZO 1022,0 12 0 0,0
22.09.2017 08:00:00 7,9 7,3 7,6 9,9 10,7 13,6 0 0 4 2 N 1021,9 7 0 0,0
22.09.2017 07:00:00 8,0 7,4 7,7 10,0 10,8 13,6 3 2 4 2 OZO 1021,7 12 0 0,0
22.09.2017 06:00:00 8,1 7,4 7,7 10,2 10,9 13,6 3 2 6 3 O 1021,8 16 0 0,0
22.09.2017 05:00:00 8,2 7,5 7,9 10,3 11,0 13,6 0 0 4 2 N 1021,7 14 0 0,0
22.09.2017 04:00:00 8,3 7,5 8,0 10,4 11,1 13,7 0 0 5 3 N 1021,8 14 0 0,0
22.09.2017 03:00:00 8,3 7,5 8,0 10,6 11,2 13,7 2 1 6 3 NNO 1022,0 14 0 0,0
22.09.2017 02:00:00 8,3 7,5 8,0 10,8 11,2 13,7 3 2 7 4 N 1022,1 12 0 0,0
22.09.2017 01:00:00 8,5 7,6 7,7 11,1 11,3 13,7 1 1 4 2 ZZO 1022,0 12 0 0,0
22.09.2017 00:00:00 8,9 7,9 8,5 11,3 11,4 13,7 2 1 5 3 O 1021,9 15 0 0,0
21.09.2017 23:00:00 8,9 8,0 8,7 11,6 11,5 13,7 1 1 5 3 ONO 1022,1 15 0 0,0
21.09.2017 22:00:00 9,2 8,0 8,7 11,9 11,5 13,7 2 1 4 2 N 1021,9 20 0 0,0
21.09.2017 21:00:00 9,6 8,0 9,2 12,3 11,6 13,7 3 2 6 3 NNO 1022,0 22 0 0,0
21.09.2017 20:00:00 10,2 8,2 9,7 12,7 11,5 13,7 2 1 4 2 W 1021,6 24 0 0,0
21.09.2017 19:00:00 10,9 7,9 10,5 13,2 11,5 13,7 0 0 8 4 N 1021,2 41 0 0,0
21.09.2017 18:00:00 11,9 7,1 11,9 13,7 11,3 13,7 5 3 15 8 W 1021,0 54 0 0,0
21.09.2017 17:00:00 12,9 7,4 13,7 13,8 11,1 13,7 5 3 14 8 W 1020,6 45 0 0,0
21.09.2017 16:00:00 12,2 6,7 12,5 14,1 10,9 13,7 8 5 15 8 W 1021,1 44 0 0,0
21.09.2017 15:00:00 12,8 6,1 13,6 14,1 10,6 13,8 6 4 14 8 WNW 1021,0 61 0 0,0
21.09.2017 14:00:00 13,0 6,7 14,9 13,6 10,3 13,8 5 3 13 7 WNW 1021,2 53 0 0,0
21.09.2017 13:00:00 12,4 5,9 14,1 13,3 10,0 13,8 8 4 15 8 NNW 1021,5 69 0 0,0
21.09.2017 12:00:00 12,3 6,4 14,0 12,4 9,8 13,8 10 6 18 10 NW 1021,9 55 34 0,0
21.09.2017 11:00:00 11,5 7,3 13,2 10,6 9,7 13,8 4 2 8 5 N 1022,2 43 6 0,0
21.09.2017 10:00:00 9,1 7,4 9,7 9,5 9,7 13,8 3 2 6 3 WZW 1022,6 12 0 0,0
21.09.2017 09:00:00 7,6 6,9 8,3 9,0 9,8 13,8 5 3 9 5 OZO 1022,8 8 0 0,0
21.09.2017 08:00:00 7,0 6,6 7,1 8,8 9,9 13,8 0 0 3 2 N 1022,7 4,2 0 0,0
21.09.2017 07:00:00 6,5 6,0 6,3 8,8 9,9 13,8 0 0 4 2 N 1022,8 4,5 0 0,0
21.09.2017 06:00:00 6,8 6,4 6,9 9,0 10,0 13,8 2 1 7 4 OZO 1022,4 8 0 0,0
21.09.2017 05:00:00 6,6 6,1 6,5 9,1 10,1 13,8 1 0 5 3 ZZW 1022,7 6 0 0,0
21.09.2017 04:00:00 6,8 6,2 6,6 9,2 10,2 13,8 3 2 5 3 OZO 1022,9 8 0 0,0
21.09.2017 03:00:00 7,0 6,5 7,0 9,3 10,3 13,9 2 1 6 3 OZO 1023,1 11 0 0,0
21.09.2017 02:00:00 7,0 6,6 6,9 9,5 10,4 13,9 4 2 5 3 W 1023,3 5 0 0,0
21.09.2017 01:00:00 7,1 6,6 7,0 9,6 10,5 13,9 2 1 6 3 ZO 1023,0 8 0 0,0
21.09.2017 00:00:00 7,1 6,7 7,0 9,8 10,6 13,9 3 2 5 3 WNW 1022,9 5 0 0,0
20.09.2017 23:00:00 7,0 6,5 6,9 10,0 10,7 13,9 2 1 8 4 ZO 1022,7 6 0 0,0
20.09.2017 22:00:00 7,1 6,7 6,9 10,3 10,7 13,9 3 2 4 2 W 1022,7 8 0 0,0
20.09.2017 21:00:00 7,4 6,9 6,8 10,6 10,8 13,9 3 1 6 3 ONO 1022,6 13 0 0,0
20.09.2017 20:00:00 7,6 7,0 7,3 11,1 10,8 13,9 3 2 6 4 OZO 1022,1 1,9 0 0,0
20.09.2017 19:00:00 8,5 7,2 7,7 11,6 10,7 13,9 4 2 5 3 OZO 1021,5 12 20 0,0
20.09.2017 18:00:00 9,0 6,9 9,2 11,8 10,7 13,9 4 2 12 6 ZO 1021,3 29 6 0,5
20.09.2017 17:00:00 8,7 6,2 8,5 12,1 10,5 13,9 3 1 22 12 W 1021,1 52 0 0,2
20.09.2017 16:00:00 8,3 5,3 7,7 12,8 10,3 14,0 14 8 35 19 N 1021,3 14 0 0,8
20.09.2017 15:00:00 12,4 6,1 13,5 13,0 10,0 14,0 9 5 21 12 WZW 1019,6 33 7 0,0
20.09.2017 14:00:00 12,4 5,7 13,2 12,8 9,7 14,0 10 5 21 11 W 1019,5 46 14 0,0

tt = temperatuur
td = dauwpunt
tt 5cm = temperatuur 5cm
tt -5cm = temperatuur -5cm
tt -20cm = temperatuur -20cm
tt -100cm = temperatuur -100cm
ff = windsnelheid
fx = windstoten
dd = windrichting
ppp = luchtdruk
vv = zicht
sd = Zonneschijnduur
rr = neerslag

Weerstations in de omgeving